Content
SEND FEEDBACK

Daily
Averages
Monthly
Summary
United States of America

SOUTH LAKE TAHOE - AIRPORT, CALIFORNIA


Home > North America > United States > California
Elevation: 1905 meters     Latitude: 38 54N     Longitude: 120 00W

WEATHER
 
SELECT A DAY
Number of Records: 174,284;   Date Range: 1/1/95 - 7/7/14
 
SHARE

PRINT THIS DATA

[ ← Previous Day ]
WEATHER ALMANAC - 22 MARCH, 2013
[ Next Day → ]
[ °F ]   °C
Weather ElementAverageHighLow
Temperature1.9 °C8.9 °C (2:53 pm)-4.4 °C (6:53 am)
Dewpoint-11.4 °C-3.9 °C (1:53 am)-19.4 °C (5:53 pm)
Humidity46.6 %85 % (1:53 am)13 % (4:53 pm)
Barometer1016.6 hPa1019 hPa (9:53 pm)1014.9 hPa (4:53 pm)
Wind Speed5.5 km/h13 km/h (2:53 pm)
Wind Gust27.8 km/h (12:53 pm)
Weather ElementAverage
Visibility16.1 km
Wind DirectionENE (83.6 °)

Weather ElementTotal
Precipitation---
Heating Degree Days16.1 (Base 18.3)
Averaged from 22 records on 22 March, 2013
WEATHER CONDITIONS BREAKOUT
WIND DIRECTION BREAKOUT
WEATHER BY HOUR - 22 MARCH, 2013
[ °F ]   °C
Local TimeTemperatureDewpointHumidityBarometerVisibilityWind DirectionWind SpeedGust SpeedPrecipitationEventsConditions
1:53 AM-1.7 °C-3.9 °C85 %1016.6 hPa16.1 kmCalmClear
2:53 AM-2.2 °C-4.4 °C85 %1016.3 hPa16.1 kmCalmClear
3:53 AM-2.8 °C-5 °C85 %1015.9 hPa16.1 kmSouth (180°)7.4 km/hClear
4:53 AM-2.8 °C-5.6 °C81 %1015.6 hPa16.1 kmSouth (190°)9.3 km/hClear
5:53 AM-3.9 °C-7.2 °C78 %1015.9 hPa16.1 kmSSW (200°)9.3 km/hClear
6:53 AM-4.4 °C-8.9 °C71 %1016.9 hPa16.1 kmSSW (200°)9.3 km/hClear
7:53 AM-4.4 °C-8.3 °C75 %1017.6 hPa16.1 kmSouth (180°)7.4 km/hClear
8:53 AM-1.7 °C-7.8 °C64 %1017.3 hPa16.1 kmSouth (170°)5.6 km/hClear
9:53 AM2.8 °C-8.9 °C42 %1016.3 hPa16.1 kmENE (70°)5.6 km/hClear
10:53 AM6.1 °C-12.8 °C25 %1015.6 hPa16.1 kmCalmClear
11:53 AM6.1 °C-18.3 °C16 %1015.9 hPa16.1 kmVariable7.4 km/hClear
12:53 PM6.7 °C-18.9 °C15 %1015.9 hPa16.1 kmNorth (360°)7.4 km/h27.8 km/hClear
1:53 PM7.8 °C-18.3 °C14 %1015.2 hPa16.1 kmNNE (20°)11.1 km/hClear
2:53 PM8.9 °C-16.7 °C15 %1015.2 hPa16.1 kmNE (40°)13 km/hClear
3:53 PM8.3 °C-17.8 °C14 %1015.2 hPa16.1 kmNNE (30°)11.1 km/hClear
4:53 PM8.9 °C-18.9 °C13 %1014.9 hPa16.1 kmCalmClear
5:53 PM7.8 °C-19.4 °C13 %1015.6 hPa16.1 kmNNE (20°)9.3 km/hClear
6:53 PM3.9 °C-11.7 °C32 %1017.3 hPa16.1 kmCalmClear
7:53 PM1.7 °C-10 °C42 %1018.3 hPa16.1 kmCalmClear
8:53 PM0 °C-10 °C48 %1018.6 hPa16.1 kmCalmClear
9:53 PM-1.1 °C-9.4 °C54 %1019 hPa16.1 kmSouth (180°)5.6 km/hClear
10:53 PM-1.7 °C-8.9 °C58 %1018.6 hPa16.1 kmCalmClear
Hourly data recorded from KTVL, located 0 kilometers away from South Lake Tahoe - Airport, California







STORIES FROM OUR PARTNERS